User: anonymous   Login
Location: Unspecified
(0.0000°N, 0.0000°E)
Time: 15:27:45
(UTC+01:00)
Language:

Cosmos 1515 Rocket - Orbit

View from above orbital plane
View from above orbital plane
View from above satellite
View from above satellite

Ground track
Ground track

The orbit data is extracted from the following two-line orbital elements,

1 14552U 83122B   15025.91153498  .00000346  00000-0  39470-4 0   818
2 14552 082.5256 173.9948 0018325 154.8748 323.8647 14.83057672679732
Epoch (UTC): 25 January 2015 21:52:36
Eccentricity: 0.0018325
inclination: 82.5256°
perigee height: 607 km
apogee height: 632 km
right ascension of ascending node: 173.9948°
argument of perigee: 154.8748°
revolutions per day: 14.83057672
mean anomaly at epoch: 323.8647°
orbit number at epoch: 67973

The dashed part of the orbit path shows where the satellite is in the earth's shadow,  

DLR